Wind_Speed
3 3 2 2 2 1 1 4 5 6 8 8 9 10 11 11 11 10 10 10 10 10 9 8 8 7 7 6 6 5 5 5 4 4 5 5 4 5 4 4 4 4 3 4 4 4 4 4 4
4 4 3 3 2 2 2 4 5 6 8 8 9 9 10 11 11 11 10 10 11 10 9 9 9 8 7 7 6 6 5 5 4 5 5 5 5 5 5 5 5 5 5 5 5 5 4 4 5
6 5 4 3 3 3 3 3 4 6 8 8 8 8 9 11 11 11 11 11 12 11 10 9 9 8 7 7 7 7 6 6 5 5 5 5 5 5 5 6 5 6 6 6 6 6 6 6 6
7 6 5 4 3 4 4 4 5 7 7 8 7 7 8 10 11 11 11 11 11 11 10 9 9 9 8 8 8 8 7 7 6 5 5 5 5 6 6 6 5 6 6 7 7 7 6 6 7
8 7 6 5 5 5 5 4 5 6 7 7 7 8 9 9 11 11 11 11 11 11 10 9 9 8 8 8 8 8 7 7 6 6 5 6 6 7 7 6 6 7 7 7 7 7 7 6 6
9 8 7 7 7 7 6 6 5 5 6 7 8 9 9 9 10 11 12 12 12 12 11 10 10 9 8 9 8 8 8 7 7 6 6 6 7 7 8 7 7 7 8 8 8 8 8 8 7
10 9 8 8 9 9 8 7 7 7 8 8 8 9 9 10 11 12 13 12 12 12 12 10 10 9 8 8 9 8 8 7 7 7 7 8 8 8 8 7 7 7 8 8 9 9 8 8 8
11 10 10 10 10 10 10 10 9 8 8 9 9 9 10 10 12 12 13 13 13 12 12 11 10 9 8 9 9 9 9 8 8 8 8 8 8 8 7 7 8 8 8 8 8 8 9 9 9
11 11 10 11 12 12 12 11 10 10 9 9 10 10 11 11 12 13 13 13 12 12 12 12 11 9 9 9 9 10 10 10 9 8 8 8 8 8 8 8 8 9 9 9 9 9 10 10 10
12 11 11 12 13 13 13 12 12 11 10 9 10 11 12 13 12 13 13 13 13 13 13 13 11 10 10 10 10 11 11 10 10 8 9 9 9 9 8 9 10 9 10 10 10 10 11 11 11
13 12 12 13 13 13 14 13 12 10 10 11 11 12 12 13 13 12 13 13 14 13 13 13 12 11 11 11 11 11 11 11 11 10 10 10 10 11 10 10 11 11 11 11 11 12 12 11 11
14 12 13 13 13 13 14 13 12 11 12 13 13 13 12 13 13 12 13 14 14 14 14 13 12 12 12 12 12 12 12 12 12 12 11 12 12 12 12 13 13 12 12 12 12 12 12 12 12
15 13 13 14 14 14 14 13 13 12 13 14 15 15 14 13 13 14 14 13 13 14 15 14 13 12 12 12 12 12 12 13 13 12 12 13 12 13 13 14 14 14 13 13 13 13 13 13 13
16 15 14 14 15 15 15 14 13 11 13 14 14 15 14 14 14 14 14 13 13 14 14 14 14 14 13 12 12 12 13 13 13 13 13 13 13 13 13 14 14 14 14 14 14 15 14 13 14
16 16 16 16 16 16 16 14 14 13 14 14 14 14 14 14 15 14 13 14 14 14 14 14 15 16 15 14 14 13 14 14 14 14 14 14 14 14 13 14 14 14 14 14 14 16 15 15 15
18 18 17 15 16 17 17 15 14 14 15 15 15 16 15 15 16 15 14 14 15 15 15 16 16 16 15 15 14 14 14 14 14 14 14 15 14 14 14 15 15 15 15 15 16 16 16 17 17
19 19 18 16 16 18 18 16 14 16 16 16 15 16 16 16 17 16 15 15 15 16 16 17 17 17 17 15 15 14 14 14 15 15 14 15 15 16 16 15 16 16 16 16 17 17 17 17 17
20 20 18 17 17 19 19 18 17 18 17 17 16 17 17 16 17 17 16 16 16 16 17 17 17 17 16 15 15 15 15 15 15 16 15 15 16 16 16 16 17 17 18 18 18 18 17 18 18
22 20 19 17 18 20 21 20 18 18 18 18 19 18 17 16 16 17 17 17 17 17 17 17 18 17 16 16 16 15 15 16 16 16 16 16 16 17 17 17 18 19 19 19 19 19 18 19 19
21 21 20 19 19 21 22 21 20 19 19 19 19 18 18 17 17 17 17 18 18 18 18 19 18 17 16 16 15 15 15 16 16 16 16 17 18 18 18 19 19 19 20 20 20 20 20 20 20
22 21 20 20 21 22 23 22 20 19 19 18 18 18 18 17 17 17 17 18 18 18 18 18 19 18 17 16 16 16 16 16 16 17 17 18 19 19 19 19 19 19 20 20 21 21 21 21 21
22 21 21 21 22 22 22 22 18 17 17 17 18 18 18 18 18 17 17 18 18 18 19 19 19 19 18 17 17 17 17 17 18 18 17 17 18 18 18 18 18 19 20 21 21 21 22 21 21
22 21 22 21 22 22 21 22 18 17 17 18 18 18 18 19 19 18 18 18 18 19 19 19 18 18 17 18 17 17 17 17 17 17 17 17 18 18 18 18 18 19 21 21 21 22 23 23 23
22 22 23 22 22 22 20 22 20 18 19 19 19 19 19 20 20 19 20 20 19 19 19 19 18 18 19 19 17 17 17 18 18 18 19 19 19 19 18 18 19 20 21 21 21 22 23 24 24
23 23 23 23 23 22 20 21 21 18 19 19 20 20 20 21 20 20 20 20 20 20 20 19 19 19 19 18 18 17 18 18 19 19 20 21 20 20 20 20 20 21 21 22 22 23 24 24 24
23 23 23 23 23 21 20 21 20 19 19 20 21 22 21 21 20 20 20 20 20 20 21 21 19 19 18 18 18 18 19 19 20 20 21 21 22 21 20 21 21 22 23 23 23 23 24 24 25
24 24 23 24 24 23 22 21 20 20 21 21 22 22 22 22 21 21 21 21 20 20 21 21 20 19 19 19 19 20 20 20 21 21 21 21 22 23 22 23 23 24 24 24 24 24 24 25 25
25 24 24 24 25 25 24 22 20 20 21 20 21 22 23 23 22 22 21 20 21 21 21 21 20 19 20 20 20 20 21 21 21 21 21 22 23 23 24 24 25 25 26 26 26 25 25 26 26
24 25 25 25 26 26 26 23 21 22 22 21 21 22 23 23 22 22 22 21 21 21 22 21 20 20 20 20 21 21 21 22 22 22 23 23 23 24 25 26 26 27 27 27 27 26 27 27 28
24 25 25 26 26 26 27 24 23 23 22 22 22 23 23 23 22 22 21 21 21 22 21 21 21 21 21 21 22 22 22 23 23 23 24 24 25 25 26 27 27 27 28 28 28 28 27 27 27
Wind_Direction
222 233 235 242 236 238 9 20 24 14 11 11 10 6 2 357 356 354 351 348 347 341 340 343 340 341 346 350 349 350 347 339 335 327 322 322 317 308 305 303 300 295 288 293 292 287 285 270 265
233 235 236 249 259 281 319 359 4 0 3 5 4 1 358 356 353 352 349 349 345 340 339 339 339 337 339 344 345 342 339 330 323 316 311 310 307 301 292 292 297 295 287 292 293 288 284 272 265
242 241 243 252 288 298 315 342 353 353 358 358 355 352 354 355 352 351 350 348 345 340 336 336 335 332 329 331 331 330 328 323 317 314 307 303 297 294 293 290 293 294 286 286 286 281 278 272 269
247 241 245 252 278 296 302 331 355 355 350 352 351 347 348 351 347 347 346 342 341 341 338 333 330 328 325 321 320 320 320 318 309 312 309 300 292 287 288 288 287 290 284 279 279 279 279 275 274
243 241 241 248 269 287 297 320 341 351 355 352 348 348 345 343 340 340 342 340 339 342 339 335 330 326 322 318 316 316 313 309 304 306 306 299 293 286 280 282 282 285 281 276 277 276 275 277 275
243 243 245 246 261 275 286 298 315 329 342 345 340 340 343 341 337 337 341 339 337 336 333 330 329 325 318 316 315 312 308 301 298 302 300 295 296 291 280 276 279 282 281 276 276 276 269 269 271
248 247 249 249 256 269 277 286 298 312 326 334 333 339 339 336 335 334 336 336 334 330 329 327 324 321 315 314 315 312 307 299 294 294 290 291 293 293 283 276 281 280 278 276 273 271 266 262 262
253 252 252 256 261 270 270 274 286 301 316 327 328 332 331 331 331 331 330 329 329 327 327 328 322 318 315 312 313 314 311 304 297 293 288 289 289 290 282 278 280 281 279 277 276 274 268 261 258
258 260 261 262 267 270 272 272 282 294 306 320 327 328 326 328 329 326 325 325 325 324 323 324 321 315 311 308 308 309 309 305 301 296 292 288 289 287 283 283 282 283 282 278 274 270 270 262 258
259 262 266 267 268 266 268 270 278 288 296 307 315 317 320 320 322 322 320 319 319 318 317 318 317 313 310 304 304 302 304 302 300 296 292 287 285 284 286 287 284 284 282 278 272 269 269 266 260
262 265 264 263 262 263 266 267 275 285 289 299 303 306 310 315 318 318 319 317 316 316 315 314 315 314 310 306 305 301 299 299 297 294 291 286 283 285 288 287 285 281 279 275 272 272 271 269 265
262 262 261 261 258 259 263 265 269 280 289 295 297 299 302 306 309 309 312 313 313 314 317 312 313 314 312 311 306 303 301 297 294 291 289 286 284 285 285 284 284 280 278 275 272 270 268 267 268
256 257 256 257 258 262 266 268 270 277 283 288 290 290 297 297 300 301 305 308 314 314 314 313 312 312 312 312 308 305 303 299 295 290 290 290 288 287 284 282 284 280 278 278 277 272 270 267 265
255 255 251 253 255 259 264 269 271 278 282 286 286 289 296 298 300 300 302 304 309 315 314 313 314 317 314 309 306 306 304 301 297 291 291 288 287 288 285 282 282 280 278 280 279 276 272 269 266
255 254 252 253 254 256 261 265 270 274 277 280 284 288 294 298 300 296 298 300 303 308 310 312 314 312 309 305 302 302 301 301 300 295 292 285 283 284 283 282 281 279 277 277 278 276 274 274 270
255 255 255 256 255 256 260 268 271 272 276 278 280 285 290 293 296 297 297 297 299 302 305 305 309 308 305 303 303 302 301 300 298 294 291 285 283 282 281 281 280 277 276 277 278 275 273 271 269
255 258 259 259 259 260 264 269 270 272 276 276 278 281 286 289 291 291 291 293 295 297 300 301 302 303 302 301 301 302 302 299 295 291 287 286 286 283 280 281 281 279 277 278 278 276 276 271 269
257 259 260 261 260 262 265 270 271 272 274 275 275 279 284 285 288 287 287 289 291 293 295 298 298 299 299 298 298 298 298 297 295 290 288 288 284 281 280 281 282 280 279 278 277 277 273 270 270
259 259 260 261 261 262 265 269 272 273 275 275 277 280 282 282 285 284 284 285 288 291 292 295 296 296 297 298 297 296 297 297 297 292 288 287 284 283 282 282 281 280 278 277 277 276 273 271 272
255 257 259 259 261 264 265 269 274 274 276 276 276 280 278 278 282 281 282 283 286 289 292 294 294 292 293 297 299 297 296 295 296 291 288 286 285 285 284 283 281 279 277 276 275 273 273 271 272
253 257 258 260 262 265 268 269 273 274 276 275 275 277 275 274 277 279 283 284 283 285 290 293 294 290 290 293 295 294 293 293 294 291 289 289 287 285 284 283 281 279 278 276 274 272 272 271 272
252 254 258 260 263 265 270 273 271 275 277 274 274 274 274 277 277 277 281 282 283 285 288 291 292 289 288 289 290 290 291 293 294 293 292 291 290 288 286 284 284 283 282 277 274 271 272 272 271
253 254 257 260 262 264 268 273 274 274 276 276 275 275 274 277 278 279 281 280 281 285 285 286 286 285 287 287 289 289 290 292 293 290 289 290 291 289 285 284 287 286 284 280 277 273 273 272 270
251 253 256 258 261 263 267 273 276 278 279 278 278 280 278 278 279 279 280 279 279 280 280 281 283 283 286 286 287 290 290 290 290 288 288 289 290 287 283 283 286 288 286 283 280 277 275 274 272
250 254 258 261 262 266 269 272 278 282 281 282 283 284 284 283 282 279 280 280 280 280 281 284 283 282 284 285 285 288 289 287 288 286 286 288 289 288 283 282 286 287 286 285 282 280 279 277 275
250 253 260 267 270 270 269 272 278 282 283 283 284 286 287 286 285 284 284 284 283 283 283 285 284 283 284 284 282 285 286 286 287 287 286 286 289 288 288 286 286 286 286 284 283 281 279 278 278
251 253 258 267 272 273 273 274 277 279 282 283 285 286 284 285 286 287 287 286 284 284 284 283 282 281 282 282 282 284 285 287 290 289 289 289 288 288 288 285 284 285 285 284 285 284 281 279 279
252 256 259 264 272 275 274 276 279 280 283 286 286 285 284 284 286 287 289 288 287 285 285 281 278 278 280 280 279 282 287 290 292 290 290 290 289 287 287 287 287 286 284 283 283 282 280 278 277
252 254 259 264 270 274 276 277 282 285 286 286 286 285 284 284 285 287 287 287 286 283 282 278 278 277 277 279 279 282 287 290 291 291 289 290 290 288 288 289 288 286 286 286 285 283 282 278 277
257 258 261 264 267 270 275 278 282 285 286 287 288 287 286 285 286 287 285 285 284 282 278 277 279 276 278 278 280 282 287 290 291 292 290 290 290 289 289 290 289 288 287 287 285 283 282 281 279
Height
5893 5894 5894 5895 5896 5895 5894 5893 5893 5892 5891 5891 5890 5889 5889 5889 5889 5889 5886 5884 5883 5882 5881 5880 5880 5879 5878 5877 5877 5876 5876 5875 5875 5875 5875 5876 5876 5876 5876 5877 5877 5877 5878 5878 5878 5879 5879 5879 5880
5893 5894 5895 5895 5895 5894 5894 5893 5892 5892 5891 5891 5890 5890 5889 5888 5887 5886 5884 5883 5882 5881 5880 5880 5879 5878 5877 5876 5876 5875 5875 5875 5874 5874 5874 5874 5875 5875 5875 5876 5876 5876 5877 5877 5877 5878 5878 5878 5879
5893 5893 5895 5894 5894 5894 5894 5893 5892 5891 5891 5890 5890 5889 5889 5888 5887 5885 5884 5882 5881 5880 5879 5878 5878 5877 5876 5876 5875 5874 5874 5874 5873 5873 5873 5873 5873 5874 5874 5874 5875 5875 5875 5876 5877 5877 5877 5878 5878
5892 5893 5894 5894 5893 5893 5893 5893 5892 5891 5891 5890 5889 5889 5888 5887 5886 5885 5883 5882 5880 5879 5878 5877 5876 5875 5875 5874 5874 5873 5873 5872 5872 5872 5872 5872 5872 5872 5873 5873 5873 5874 5874 5875 5875 5876 5876 5876 5877
5891 5892 5893 5892 5892 5892 5892 5891 5891 5890 5890 5889 5889 5888 5887 5886 5885 5884 5882 5881 5879 5878 5877 5876 5875 5874 5873 5873 5872 5872 5871 5871 5871 5871 5871 5871 5871 5871 5871 5872 5872 5872 5873 5873 5874 5874 5874 5875 5875
5891 5891 5892 5891 5891 5891 5891 5890 5890 5889 5889 5888 5888 5887 5886 5885 5884 5883 5882 5880 5878 5877 5876 5874 5873 5872 5871 5871 5871 5870 5870 5870 5869 5869 5869 5869 5870 5870 5870 5870 5870 5871 5871 5871 5872 5872 5873 5873 5874
5890 5890 5890 5890 5890 5890 5890 5889 5888 5888 5888 5887 5887 5886 5885 5884 5883 5882 5880 5879 5877 5876 5875 5873 5872 5871 5870 5870 5869 5869 5868 5868 5868 5868 5867 5868 5868 5868 5868 5868 5869 5869 5869 5869 5870 5870 5871 5871 5872
5888 5889 5888 5888 5888 5888 5888 5887 5887 5887 5886 5886 5885 5884 5883 5883 5882 5880 5879 5878 5876 5875 5873 5872 5871 5870 5869 5868 5868 5867 5867 5867 5866 5866 5866 5866 5866 5866 5866 5866 5866 5867 5867 5867 5868 5868 5869 5869 5870
5886 5888 5887 5887 5886 5886 5886 5885 5886 5885 5885 5884 5883 5883 5882 5880 5879 5879 5877 5876 5875 5873 5872 5870 5869 5868 5867 5867 5866 5865 5865 5865 5864 5864 5864 5864 5864 5864 5864 5864 5864 5865 5865 5865 5865 5866 5866 5867 5868
5884 5885 5885 5885 5884 5884 5883 5883 5883 5883 5883 5882 5882 5881 5880 5878 5877 5876 5875 5874 5873 5871 5870 5869 5867 5866 5865 5865 5864 5864 5863 5863 5862 5862 5862 5862 5862 5862 5862 5862 5862 5862 5862 5862 5863 5863 5863 5864 5865
5881 5882 5882 5882 5881 5881 5881 5881 5881 5881 5881 5881 5880 5879 5877 5876 5875 5874 5873 5872 5870 5869 5868 5867 5865 5864 5864 5863 5862 5861 5861 5860 5860 5860 5860 5860 5860 5860 5859 5859 5859 5859 5859 5860 5860 5860 5860 5861 5861
5879 5879 5879 5879 5878 5878 5878 5878 5879 5879 5879 5879 5877 5876 5875 5874 5873 5872 5871 5869 5868 5867 5866 5864 5863 5862 5861 5861 5860 5859 5858 5858 5858 5857 5857 5857 5857 5857 5857 5857 5856 5856 5856 5856 5857 5857 5858 5858 5858
5876 5877 5876 5876 5876 5876 5876 5876 5876 5877 5877 5876 5875 5874 5872 5871 5870 5869 5868 5867 5866 5865 5863 5862 5861 5860 5859 5858 5857 5857 5856 5855 5855 5855 5854 5854 5854 5854 5853 5853 5853 5853 5853 5853 5853 5854 5854 5855 5855
5873 5873 5873 5873 5873 5873 5873 5873 5874 5874 5874 5873 5872 5871 5869 5868 5867 5866 5865 5864 5863 5862 5861 5859 5858 5857 5856 5855 5855 5854 5853 5852 5852 5851 5851 5851 5850 5850 5850 5850 5850 5850 5849 5850 5850 5850 5851 5851 5851
5869 5870 5871 5871 5870 5870 5870 5871 5871 5871 5870 5870 5869 5868 5866 5865 5864 5863 5862 5861 5860 5859 5858 5857 5855 5855 5854 5853 5852 5851 5850 5850 5849 5848 5848 5847 5847 5847 5847 5847 5846 5846 5846 5846 5846 5846 5847 5847 5848
5866 5867 5868 5868 5867 5867 5868 5868 5868 5867 5866 5866 5865 5864 5863 5862 5861 5859 5859 5858 5857 5856 5855 5854 5853 5852 5851 5850 5849 5848 5847 5846 5846 5845 5844 5844 5843 5843 5843 5843 5843 5842 5842 5842 5842 5842 5843 5843 5844
5863 5863 5863 5865 5864 5863 5863 5863 5864 5863 5862 5862 5861 5860 5859 5858 5857 5856 5855 5854 5854 5853 5852 5851 5850 5849 5848 5847 5845 5845 5843 5843 5842 5841 5841 5840 5840 5840 5839 5839 5839 5838 5838 5838 5838 5838 5838 5839 5839
5859 5859 5860 5861 5861 5860 5859 5859 5860 5859 5858 5858 5857 5856 5855 5854 5853 5852 5851 5851 5850 5849 5849 5848 5847 5845 5844 5843 5842 5841 5840 5839 5838 5838 5837 5837 5836 5836 5836 5835 5835 5834 5834 5834 5834 5834 5834 5834 5835
5855 5855 5856 5857 5857 5855 5855 5855 5856 5855 5854 5854 5853 5852 5851 5849 5849 5848 5847 5847 5846 5845 5845 5844 5843 5842 5840 5839 5838 5837 5836 5835 5834 5834 5833 5833 5832 5832 5831 5831 5830 5830 5830 5830 5830 5830 5830 5830 5830
5850 5851 5852 5853 5852 5851 5851 5851 5851 5850 5850 5849 5848 5847 5846 5845 5844 5843 5843 5842 5842 5841 5840 5839 5838 5837 5836 5835 5834 5834 5833 5832 5831 5830 5829 5828 5828 5827 5827 5826 5826 5825 5825 5825 5825 5825 5825 5825 5825
5845 5846 5848 5848 5847 5847 5846 5847 5847 5846 5845 5845 5844 5843 5842 5841 5840 5839 5839 5838 5838 5837 5836 5835 5834 5833 5832 5831 5830 5830 5829 5828 5827 5826 5825 5824 5823 5823 5822 5821 5821 5820 5820 5819 5819 5819 5819 5820 5820
5841 5843 5843 5842 5842 5842 5842 5841 5843 5842 5841 5841 5840 5839 5838 5837 5836 5835 5834 5834 5833 5832 5831 5830 5829 5829 5828 5827 5826 5825 5824 5824 5823 5821 5820 5819 5818 5817 5817 5816 5816 5815 5815 5814 5814 5814 5814 5814 5814
5836 5838 5838 5837 5837 5837 5837 5836 5839 5838 5837 5837 5836 5835 5834 5833 5832 5831 5830 5829 5828 5827 5826 5826 5824 5824 5823 5822 5821 5820 5820 5819 5818 5817 5816 5815 5814 5813 5812 5811 5811 5810 5809 5809 5808 5808 5808 5808 5808
5831 5832 5832 5832 5832 5832 5834 5832 5833 5834 5833 5833 5832 5831 5829 5829 5828 5827 5825 5824 5823 5822 5821 5820 5820 5819 5819 5818 5817 5816 5815 5814 5813 5812 5811 5810 5809 5808 5807 5806 5805 5805 5804 5803 5802 5802 5802 5802 5802
5826 5827 5827 5827 5827 5828 5830 5828 5829 5830 5829 5828 5827 5826 5825 5824 5823 5822 5820 5819 5818 5817 5816 5815 5815 5814 5814 5813 5812 5811 5810 5809 5809 5808 5807 5805 5803 5802 5802 5801 5800 5799 5799 5798 5797 5796 5795 5795 5795
5821 5823 5823 5823 5823 5824 5824 5824 5826 5826 5825 5824 5823 5821 5820 5819 5818 5816 5815 5813 5812 5811 5810 5809 5809 5808 5808 5808 5808 5807 5806 5805 5804 5803 5801 5800 5798 5797 5797 5796 5794 5793 5792 5792 5791 5790 5789 5788 5787
5816 5817 5819 5818 5818 5818 5819 5820 5821 5821 5820 5819 5818 5816 5815 5814 5812 5811 5810 5808 5807 5806 5804 5804 5803 5803 5803 5803 5803 5802 5801 5800 5798 5797 5796 5795 5794 5792 5791 5790 5788 5787 5786 5785 5784 5783 5782 5781 5780
5811 5812 5813 5812 5812 5811 5813 5814 5816 5815 5815 5814 5813 5811 5809 5808 5807 5805 5804 5802 5801 5800 5799 5798 5798 5797 5797 5797 5797 5797 5796 5794 5793 5791 5790 5789 5788 5786 5785 5783 5782 5780 5779 5778 5777 5776 5775 5774 5773
5805 5806 5806 5807 5807 5807 5807 5812 5811 5810 5809 5809 5808 5806 5805 5803 5802 5800 5798 5797 5795 5794 5792 5792 5792 5792 5792 5792 5792 5791 5790 5789 5787 5786 5784 5783 5781 5780 5778 5776 5774 5773 5772 5771 5769 5768 5767 5766 5765
5799 5800 5801 5802 5802 5802 5802 5806 5805 5804 5803 5802 5802 5800 5799 5797 5796 5794 5793 5791 5790 5788 5787 5786 5786 5786 5786 5786 5786 5785 5784 5783 5781 5779 5777 5776 5774 5773 5771 5769 5767 5765 5764 5762 5761 5760 5759 5758 5757